Torna al catalogo

COSMOS 2524

AttivoNavigazioneLEO
NORAD 43032·PAYLOAD·🇷🇺 Russia

Lanciato Dec 2, 2017 da Plesetsk Cosmodrome

Loading…

Prossimi Passaggi (prossime 24 ore)

TLE

AggiornatoSource: Space-Track

Epoca: Sep 14, 2026, 22:08 UTC

1 43032U 17076A   26257.92247845  .00000128  00000-0  14490-3 0  9998
2 43032  67.1490 334.0941 0002163 294.9118  65.1742 13.97437422448149

Traccia COSMOS 2524 in tempo reale con AllMySat

Download on the App Store